Location: Haliburton Scout Reserve
(45.0900°N, 78.3200°W)
Time: 18:57:33
(UTC-04:00)

STRAND 1 - Pass Details

Date: 29 March 2023
Orbit: 767 x 779 km, 98.4° (Epoch: 06 June)

Event Time Altitude Azimuth Distance (km) Brightness Sun altitude
Rises 21:19:17 0° 2° (N) 3,251 ? -18.1°
Reaches altitude 10° 21:21:59 10° 349° (NNW) 2,319 ? -18.6°
Maximum altitude 21:25:57 24° 297° (WNW) 1,571 ? -19.2°
Drops below altitude 10° 21:29:55 10° 246° (WSW) 2,305 ? -19.8°
Sets 21:32:36 0° 232° (SW) 3,228 ? -20.2°
